| time (UTC) | temp F | wind direction | speed MPH | gust MPH | rain 1hr in | rain 24hr in | rain mn in | humidity % | barometer mb |
| 20260905184535 | 81 | 261 | 0.0 | 0.0 | 0.00 | 0.57 | 0.57 | 69 | 1014.7 |
| 20260905183034 | 82 | 208 | 0.0 | 5.0 | 0.00 | 0.57 | 0.57 | 68 | 1014.8 |
| 20260905181520 | 82 | 150 | 0.0 | 0.0 | 0.00 | 0.57 | 0.57 | 68 | 1014.9 |
| 20260905180017 | 82 | 252 | 0.0 | 2.0 | 0.00 | 0.57 | 0.57 | 70 | 1014.9 |
| 20260905174515 | 82 | 264 | 0.0 | 0.0 | 0.00 | 0.57 | 0.57 | 67 | 1014.9 |
| 20260905173015 | 82 | 264 | 0.0 | 0.0 | 0.00 | 0.57 | 0.57 | 71 | 1015.1 |
| 20260905171507 | 81 | 57 | 0.0 | 2.0 | 0.00 | 0.63 | 0.57 | 70 | 1015.2 |
| 20260905170028 | 81 | 46 | 0.0 | 2.0 | 0.00 | 0.65 | 0.57 | 72 | 1015.3 |
| 20260905164525 | 80 | 164 | 0.0 | 1.0 | 0.00 | 0.68 | 0.57 | 74 | 1015.3 |
| 20260905163019 | 80 | 31 | 0.0 | 0.0 | 0.00 | 0.68 | 0.57 | 75 | 1015.3 |
| 20260905161517 | 80 | 169 | 0.0 | 0.0 | 0.00 | 0.68 | 0.57 | 75 | 1015.1 |
| 20260905160011 | 79 | 99 | 0.0 | 2.0 | 0.00 | 0.69 | 0.57 | 80 | 1015.0 |
| 20260905154510 | 76 | 267 | 0.0 | 0.0 | 0.00 | 0.77 | 0.57 | 80 | 1015.0 |
| 20260905153009 | 74 | 178 | 0.0 | 0.0 | 0.00 | 0.78 | 0.57 | 86 | 1014.8 |
| 20260905151529 | 73 | 351 | 0.0 | 0.0 | 0.00 | 0.79 | 0.57 | 88 | 1015.0 |
| 20260905150026 | 72 | 360 | 0.0 | 0.0 | 0.00 | 0.79 | 0.57 | 91 | 1014.9 |
| 20260905144519 | 71 | 150 | 0.0 | 0.0 | 0.00 | 0.90 | 0.57 | 94 | 1014.8 |
| 20260905143023 | 70 | 150 | 0.0 | 0.0 | 0.00 | 0.90 | 0.57 | 95 | 1014.3 |
| 20260905141515 | 70 | 150 | 0.0 | 0.0 | 0.00 | 0.90 | 0.57 | 95 | 1014.3 |
| 20260905140010 | 69 | 217 | 0.0 | 2.0 | 0.00 | 0.90 | 0.57 | 95 | 1014.5 |
| 20260905134536 | 69 | 192 | 1.0 | 4.0 | 0.00 | 0.90 | 0.57 | 95 | 1014.8 |
| 20260905133029 | 69 | 213 | 0.0 | 0.0 | 0.00 | 0.90 | 0.57 | 95 | 1014.6 |
| 20260905131527 | 69 | 173 | 0.0 | 3.0 | 0.00 | 0.90 | 0.57 | 95 | 1014.7 |
| 20260905130025 | 69 | 197 | 1.0 | 3.0 | 0.01 | 0.90 | 0.57 | 95 | 1015.0 |
| 20260905124524 | 68 | 151 | 1.0 | 4.0 | 0.02 | 0.90 | 0.57 | 95 | 1015.5 |
| 20260905123049 | 68 | 262 | 2.0 | 7.0 | 0.03 | 0.90 | 0.57 | 95 | 1015.7 |
| 20260905121515 | 68 | 285 | 1.0 | 5.0 | 0.04 | 0.90 | 0.57 | 95 | 1015.5 |
| 20260905120033 | 68 | 264 | 3.0 | 7.0 | 0.06 | 0.89 | 0.56 | 95 | 1015.8 |
| 20260905114532 | 68 | 261 | 2.0 | 4.0 | 0.09 | 0.88 | 0.55 | 95 | 1015.0 |
| 20260905113033 | 68 | 153 | 0.0 | 3.0 | 0.13 | 0.87 | 0.54 | 95 | 1014.9 |
| 20260905111528 | 68 | 243 | 0.0 | 0.0 | 0.18 | 0.86 | 0.52 | 95 | 1016.5 |
| 20260905110024 | 68 | 9 | 0.0 | 0.0 | 0.19 | 0.83 | 0.50 | 95 | 1016.6 |
| 20260905104520 | 68 | 9 | 0.0 | 0.0 | 0.37 | 0.79 | 0.46 | 95 | 1016.7 |
| 20260905103012 | 69 | 9 | 0.0 | 0.0 | 0.35 | 0.74 | 0.41 | 94 | 1016.6 |
| 20260905101512 | 69 | 5 | 0.0 | 3.0 | 0.30 | 0.68 | 0.35 | 94 | 1016.1 |
| 20260905100548 | 69 | 346 | 2.0 | 4.0 | 0.28 | 0.64 | 0.31 | 93 | 1016.1 |
| 20260905094526 | 71 | 360 | 3.0 | 10.0 | 0.07 | 0.42 | 0.09 | 92 | 1017.0 |
| 20260905093027 | 72 | 360 | 2.0 | 3.0 | 0.04 | 0.39 | 0.06 | 95 | 1015.1 |
| 20260905091523 | 72 | 257 | 0.0 | 0.0 | 0.05 | 0.38 | 0.05 | 95 | 1015.2 |
| 20260905090018 | 72 | 204 | 0.0 | 0.0 | 0.03 | 0.36 | 0.03 | 95 | 1015.2 |
| 20260905084515 | 72 | 248 | 0.0 | 0.0 | 0.02 | 0.35 | 0.02 | 95 | 1014.9 |
| 20260905083016 | 72 | 248 | 0.0 | 2.0 | 0.02 | 0.35 | 0.02 | 95 | 1015.3 |
| 20260905081507 | 72 | 260 | 0.0 | 0.0 | 0.00 | 0.33 | 0.00 | 95 | 1015.2 |
| 20260905080041 | 72 | 239 | 2.0 | 3.0 | 0.00 | 0.33 | 0.00 | 95 | 1014.3 |
| 20260905074531 | 72 | 204 | 0.0 | 0.0 | 0.00 | 0.33 | 0.00 | 95 | 1014.1 |
| 20260905073031 | 72 | 138 | 0.0 | 0.0 | 0.00 | 0.33 | 0.00 | 95 | 1013.8 |
| 20260905071530 | 72 | 148 | 0.0 | 0.0 | 0.00 | 0.33 | 0.00 | 95 | 1014.5 |
| 20260905070024 | 72 | 148 | 0.0 | 0.0 | 0.00 | 0.33 | 0.00 | 95 | 1014.5 |
| 20260905064512 | 72 | 136 | 0.0 | 0.0 | 0.00 | 0.33 | 0.00 | 95 | 1014.7 |
| 20260905063009 | 72 | 136 | 0.0 | 0.0 | 0.00 | 0.33 | 0.00 | 95 | 1014.9 |
| 20260905061535 | 71 | 108 | 0.0 | 0.0 | 0.00 | 0.33 | 0.00 | 95 | 1014.9 |
| 20260905060042 | 71 | 108 | 0.0 | 0.0 | 0.00 | 0.33 | 0.00 | 94 | 1015.1 |
| 20260905054531 | 71 | 108 | 0.0 | 0.0 | 0.00 | 0.33 | 0.00 | 94 | 1015.3 |
| 20260905053023 | 71 | 108 | 0.0 | 0.0 | 0.00 | 0.33 | 0.00 | 95 | 1015.4 |
| 20260905051525 | 71 | 108 | 0.0 | 0.0 | 0.00 | 0.33 | 0.00 | 94 | 1015.5 |
| 20260905050018 | 71 | 108 | 0.0 | 0.0 | 0.00 | 0.33 | 0.00 | 95 | 1015.5 |
| 20260905044516 | 71 | 108 | 0.0 | 0.0 | 0.00 | 0.33 | 0.00 | 94 | 1015.5 |
| 20260905043031 | 71 | 108 | 0.0 | 0.0 | 0.00 | 0.33 | 0.00 | 94 | 1015.7 |
| 20260905041535 | 71 | 108 | 0.0 | 0.0 | 0.00 | 0.33 | 0.00 | 94 | 1015.9 |
| 20260905040038 | 71 | 108 | 0.0 | 0.0 | 0.00 | 0.33 | 0.00 | 94 | 1015.9 |
| 20260905034525 | 71 | 108 | 0.0 | 0.0 | 0.00 | 0.33 | 0.33 | 94 | 1015.8 |
| 20260905033020 | 71 | 108 | 0.0 | 0.0 | 0.00 | 0.33 | 0.33 | 94 | 1015.9 |
| 20260905031527 | 72 | 108 | 0.0 | 0.0 | 0.00 | 0.33 | 0.33 | 93 | 1016.0 |
| 20260905030032 | 72 | 120 | 0.0 | 0.0 | 0.00 | 0.33 | 0.33 | 93 | 1016.1 |
| 20260905024533 | 72 | 120 | 0.0 | 0.0 | 0.00 | 0.33 | 0.33 | 93 | 1016.1 |
| 20260905023031 | 72 | 174 | 0.0 | 0.0 | 0.00 | 0.33 | 0.33 | 93 | 1016.1 |
| 20260905021536 | 72 | 174 | 0.0 | 0.0 | 0.00 | 0.33 | 0.33 | 93 | 1016.1 |
| 20260905020030 | 73 | 174 | 0.0 | 0.0 | 0.00 | 0.33 | 0.33 | 92 | 1016.1 |
| 20260905014519 | 73 | 174 | 0.0 | 0.0 | 0.00 | 0.33 | 0.33 | 92 | 1015.8 |
| 20260905013015 | 73 | 174 | 0.0 | 0.0 | 0.00 | 0.33 | 0.33 | 91 | 1015.8 |
| 20260905011550 | 74 | 174 | 0.0 | 0.0 | 0.00 | 0.33 | 0.33 | 91 | 1015.8 |
| 20260905010038 | 74 | 174 | 0.0 | 0.0 | 0.00 | 0.33 | 0.33 | 90 | 1015.9 |
| 20260905004535 | 74 | 174 | 0.0 | 0.0 | 0.00 | 0.33 | 0.33 | 89 | 1015.7 |
| 20260905003041 | 75 | 174 | 0.0 | 0.0 | 0.00 | 0.33 | 0.33 | 87 | 1015.2 |
| 20260905001524 | 76 | 174 | 0.0 | 0.0 | 0.00 | 0.33 | 0.33 | 85 | 1015.3 |
| 20260905000023 | 77 | 174 | 0.0 | 0.0 | 0.00 | 0.33 | 0.33 | 85 | 1015.1 |
| 20260904234515 | 77 | 174 | 0.0 | 0.0 | 0.00 | 0.33 | 0.33 | 83 | 1015.2 |
| 20260904233032 | 78 | 174 | 0.0 | 0.0 | 0.00 | 0.33 | 0.33 | 82 | 1015.2 |
| 20260904231513 | 79 | 174 | 0.0 | 0.0 | 0.00 | 0.33 | 0.33 | 80 | 1015.5 |
| 20260904230039 | 79 | 174 | 0.0 | 2.0 | 0.00 | 0.33 | 0.33 | 80 | 1015.2 |
| 20260904224530 | 78 | 166 | 0.0 | 0.0 | 0.00 | 0.33 | 0.33 | 81 | 1015.2 |
| 20260904223033 | 77 | 192 | 0.0 | 0.0 | 0.00 | 0.33 | 0.33 | 83 | 1015.5 |
| 20260904221524 | 77 | 192 | 0.0 | 0.0 | 0.00 | 0.33 | 0.33 | 84 | 1015.4 |
| 20260904220018 | 77 | 205 | 0.0 | 0.0 | 0.00 | 0.33 | 0.33 | 81 | 1015.2 |
| 20260904214927 | 78 | 138 | 0.0 | 0.0 | 0.00 | 0.33 | 0.33 | 79 | 1014.4 |
| 20260904213018 | 78 | 175 | 0.0 | 5.0 | 0.00 | 0.33 | 0.33 | 78 | 1013.8 |
| 20260904211531 | 78 | 195 | 2.0 | 8.0 | 0.00 | 0.33 | 0.33 | 77 | 1013.4 |
| 20260904210030 | 79 | 142 | 0.0 | 3.0 | 0.00 | 0.33 | 0.33 | 77 | 1014.7 |
| 20260904204531 | 80 | 200 | 0.0 | 2.0 | 0.00 | 0.33 | 0.33 | 76 | 1015.4 |
| 20260904203026 | 80 | 140 | 0.0 | 2.0 | 0.00 | 0.33 | 0.33 | 76 | 1016.0 |
| 20260904201518 | 81 | 322 | 0.0 | 0.0 | 0.00 | 0.33 | 0.33 | 75 | 1016.2 |
| 20260904200025 | 82 | 322 | 0.0 | 2.0 | 0.00 | 0.33 | 0.33 | 71 | 1016.4 |
| 20260904194515 | 83 | 350 | 1.0 | 2.0 | 0.00 | 0.33 | 0.33 | 74 | 1016.6 |
| 20260904193034 | 81 | 335 | 0.0 | 3.0 | 0.00 | 0.33 | 0.33 | 77 | 1016.8 |
| 20260904191536 | 80 | 360 | 2.0 | 3.0 | 0.00 | 0.33 | 0.33 | 79 | 1016.9 |
| 20260904190030 | 79 | 352 | 0.0 | 3.0 | 0.00 | 0.33 | 0.33 | 81 | 1017.2 |